Overview Statistics Trail Chart Weather Telemetry Raw packets
 

This is the latest recevied weather packets stored in our database for station/object K5OLV. If no packets are shown the sender has not sent any weather packets the latest 10 day(s).

<< 79 80 81 82 83 84 85 >>
Time Temp. Humidity Pressure Rain* Wind** Luminosity Snow
1788042214 28.33° C 73% 1017.3 hPa 0 mm - 164 W/m² -
1788041910 28.33° C 73% 1017.2 hPa 0 mm - 89 W/m² -
1788041605 28.89° C 73% 1017.3 hPa 0 mm - 65 W/m² -
1788041305 28.89° C 71% 1017.1 hPa 0 mm - 196 W/m² -
1788041004 29.44° C 71% 1017.1 hPa 0 mm - 254 W/m² -
1788040703 28.89° C 71% 1017 hPa 0 mm - 246 W/m² -
1788040398 28.89° C 71% 1017 hPa 0 mm - 291 W/m² -
1788040093 28.89° C 70% 1017.3 hPa 0 mm - 281 W/m² -
1788039787 29.44° C 70% 1017.5 hPa 0 mm - 324 W/m² -
1788039483 28.89° C 68% 1017.2 hPa 0 mm - 343 W/m² -
1788039178 29.44° C 69% 1017.4 hPa 0 mm - 365 W/m² -
1788038873 29.44° C 68% 1017.2 hPa 0 mm - 367 W/m² -
1788038568 29.44° C 66% 1017.4 hPa 0 mm - 241 W/m² -
1788038267 30° C 66% 1017.2 hPa 0 mm - 404 W/m² -
1788037963 30.56° C 63% 1017.2 hPa 0 mm - 426 W/m² -
1788037657 30° C 68% 1017.4 hPa 0 mm - 442 W/m² -
1788037352 29.44° C 69% 1017.3 hPa 0 mm - 443 W/m² -
1788037051 29.44° C 68% 1017.3 hPa 0 mm - 456 W/m² -
1788036747 30° C 66% 1017.3 hPa 0 mm - 476 W/m² -
1788036444 30.56° C 64% 1017.4 hPa 0 mm - 494 W/m² -
1788036139 31.11° C 66% 1017.4 hPa 0 mm - 476 W/m² -
1788035838 30.56° C 61% 1017.5 hPa 0 mm - 465 W/m² -
1788035534 31.11° C 64% 1017.8 hPa 0 mm - 527 W/m² -
1788035229 30.56° C 66% 1017.8 hPa 0 mm - 532 W/m² -
1788034925 30.56° C 66% 1018 hPa 0 mm - 556 W/m² -

* Rain latest hour (hover to see other rain measurements)
** Current wind speed in m/s (hover to see current wind gust speed)